Dewpoint
-3 -8 -10 -11 -10 -11 -11 -10 -10 -12 -12 -12 -17 -19 -16 -10 -5 -7 -7 -10 -9 -9 -11 -10 -11 -12 -10 -10 -14 -16 -13 -13 -12 -9 -10 -10 -9 -9 -9 -12 -9 -8 -7 -4 -5 -6 -1 -8 -6 -2 -6 -11 -11 -11
2 -0 -3 -6 -8 -10 -11 -11 -11 -11 -13 -12 -12 -18 -19 -16 -8 -6 -8 -8 -9 -11 -12 -12 -12 -10 -12 -11 -13 -16 -16 -14 -12 -12 -13 -12 -8 -10 -12 -10 -14 -8 -9 -7 -5 -3 -9 -8 -8 -6 -8 -11 -13 -13
3 3 3 2 -2 -6 -10 -10 -11 -11 -11 -13 -13 -14 -19 -19 -15 -8 -9 -7 -8 -13 -12 -11 -11 -11 -11 -10 -9 -13 -15 -14 -9 -9 -12 -13 -10 -10 -8 -9 -11 -12 -14 -11 -11 -12 -11 -9 -8 -8 -11 -14 -15 -14
3 3 3 3 3 2 -1 -8 -11 -11 -11 -12 -14 -14 -17 -19 -18 -13 -9 -9 -7 -11 -10 -10 -10 -9 -8 -8 -7 -7 -13 -15 -9 -8 -8 -14 -12 -10 -11 -12 -11 -11 -13 -12 -12 -12 -13 -13 -10 -9 -9 -12 -15 -17
3 3 2 2 2 2 2 1 -2 -7 -9 -10 -12 -14 -16 -18 -18 -15 -10 -8 -7 -9 -8 -9 -10 -8 -7 -6 -6 -7 -8 -15 -9 -8 -13 -11 -11 -11 -14 -13 -13 -12 -12 -10 -10 -14 -13 -14 -13 -10 -10 -12 -15 -17
3 3 2 2 2 1 1 1 1 -1 -6 -9 -10 -13 -15 -17 -17 -13 -8 -7 -10 -14 -8 -8 -9 -9 -8 -7 -8 -7 -8 -16 -11 -8 -9 -8 -8 -10 -12 -11 -12 -11 -12 -13 -15 -14 -15 -15 -17 -13 -11 -12 -15 -15
2 2 2 2 2 1 1 1 1 0 -1 -3 -8 -11 -13 -15 -17 -12 -8 -6 -6 -4 -8 -9 -9 -11 -8 -8 -8 -9 -11 -10 -8 -8 -9 -8 -9 -9 -15 -12 -12 -13 -13 -11 -12 -13 -14 -14 -16 -14 -12 -14 -14 -14
-11 -1 1 2 2 2 2 1 1 1 -0 -2 -2 -4 -4 -4 -6 -7 -10 -7 -6 -4 -5 -10 -9 -13 -10 -12 -12 -10 -10 -10 -8 -8 -8 -9 -11 -12 -11 -12 -12 -12 -12 -12 -12 -12 -13 -15 -15 -15 -12 -14 -13 -13
-13 -15 -11 -2 1 2 2 2 1 1 0 -1 -2 -3 -3 -3 -3 -7 -8 -5 -5 -6 -6 -11 -9 -8 -14 -16 -15 -12 -10 -10 -10 -9 -9 -9 -10 -10 -11 -12 -12 -13 -12 -12 -12 -12 -12 -14 -16 -16 -15 -14 -14 -13
-5 -7 -12 -15 -6 -4 0 2 2 1 0 -1 -2 -3 -3 -4 -5 -7 -5 -5 -6 -6 -9 -9 -11 -12 -17 -13 -13 -11 -10 -10 -11 -10 -9 -9 -9 -11 -12 -12 -13 -13 -13 -13 -12 -12 -12 -13 -16 -17 -18 -19 -18 -18
-4 -4 -3 -4 -11 -7 -3 1 2 2 -0 -2 -3 -4 -6 -5 -5 -5 -6 -8 -10 -12 -11 -10 -12 -13 -17 -14 -12 -14 -11 -11 -11 -10 -9 -10 -9 -10 -13 -14 -14 -14 -14 -14 -13 -13 -12 -13 -13 -15 -16 -19 -19 -19
-5 -5 -4 -3 -4 -9 -7 -1 2 1 -2 -3 -3 -6 -6 -6 -6 -7 -8 -10 -12 -11 -12 -12 -13 -18 -18 -17 -12 -12 -11 -11 -8 -11 -12 -10 -10 -14 -15 -16 -18 -17 -15 -15 -15 -14 -13 -12 -12 -13 -15 -17 -22 -23
-5 -5 -5 -4 -4 -3 -3 -6 1 0 -2 -3 -4 -5 -5 -7 -7 -7 -8 -10 -10 -11 -13 -14 -14 -18 -16 -13 -12 -11 -10 -9 -12 -12 -10 -10 -12 -11 -9 -12 -16 -16 -15 -16 -15 -15 -14 -13 -13 -17 -15 -18 -20 -23
-4 -4 -5 -4 -4 -4 -3 -3 -1 -1 -2 -3 -4 -6 -5 -7 -9 -9 -9 -8 -10 -12 -15 -16 -15 -15 -14 -13 -12 -9 -11 -12 -12 -14 -12 -11 -12 -9 -9 -9 -10 -11 -13 -15 -16 -15 -14 -13 -16 -21 -22 -25 -23 -27
-5 -4 -4 -5 -4 -4 -3 -3 -2 -2 -3 -3 -4 -4 -6 -7 -9 -9 -9 -10 -12 -15 -17 -15 -12 -12 -11 -10 -10 -12 -12 -11 -12 -11 -11 -12 -10 -9 -10 -10 -10 -10 -10 -11 -12 -14 -14 -13 -16 -22 -25 -28 -28 -25
-5 -5 -3 -4 -4 -4 -3 -2 -3 -2 -2 -3 -4 -5 -7 -8 -10 -8 -9 -10 -14 -15 -15 -8 -10 -9 -8 -9 -10 -10 -9 -10 -11 -12 -11 -10 -10 -10 -10 -11 -11 -12 -12 -12 -12 -11 -13 -14 -14 -18 -21 -25 -25 -23
-3 -4 -5 -4 -4 -4 -3 -2 -4 -4 -3 -4 -5 -5 -7 -7 -8 -8 -8 -10 -14 -11 -7 -8 -8 -8 -11 -9 -9 -10 -11 -11 -11 -11 -11 -11 -11 -11 -11 -10 -11 -13 -13 -13 -13 -13 -12 -14 -14 -16 -18 -22 -24 -22
-3 -3 -3 -4 -4 -3 -2 -3 -4 -4 -4 -5 -5 -6 -7 -7 -7 -7 -8 -9 -13 -8 -7 -7 -9 -9 -8 -8 -9 -12 -12 -12 -11 -12 -12 -12 -11 -11 -12 -12 -14 -15 -15 -14 -13 -13 -12 -14 -16 -15 -17 -21 -21 -20
-3 -3 -3 -5 -3 -3 -4 -4 -3 -5 -7 -6 -5 -6 -6 -6 -7 -7 -8 -10 -8 -8 -6 -8 -7 -7 -9 -14 -13 -14 -14 -14 -13 -13 -12 -13 -13 -14 -15 -15 -15 -15 -15 -15 -14 -14 -13 -14 -16 -18 -19 -20 -20 -19
-3 -3 -4 -3 -2 -3 -4 -4 -4 -5 -9 -8 -6 -7 -7 -7 -7 -7 -8 -8 -8 -7 -9 -9 -13 -15 -15 -16 -15 -15 -15 -15 -15 -14 -14 -15 -15 -15 -16 -16 -16 -16 -16 -15 -15 -15 -14 -14 -15 -16 -16 -17 -19 -15
-3 -4 -3 -3 -4 -5 -7 -8 -8 -8 -8 -11 -11 -11 -12 -10 -11 -10 -10 -9 -10 -16 -15 -17 -17 -17 -17 -16 -16 -16 -16 -16 -16 -16 -17 -17 -16 -17 -17 -17 -17 -17 -16 -16 -16 -16 -16 -16 -16 -16 -15 -16 -16 -15
-2 -3 -4 -4 -6 -8 -9 -10 -10 -10 -11 -12 -11 -12 -13 -13 -14 -14 -14 -16 -18 -19 -18 -18 -17 -17 -17 -17 -17 -17 -17 -17 -17 -17 -18 -17 -18 -18 -18 -17 -17 -17 -17 -17 -17 -17 -17 -16 -16 -16 -16 -16 -16 -16
-3 -3 -5 -6 -8 -9 -11 -10 -11 -11 -11 -12 -12 -14 -15 -16 -15 -14 -17 -18 -19 -19 -18 -18 -18 -18 -18 -18 -18 -18 -18 -19 -19 -18 -18 -18 -18 -18 -18 -18 -18 -17 -18 -17 -17 -17 -17 -17 -17 -17 -17 -17 -17 -17
-4 -8 -10 -10 -10 -12 -11 -12 -11 -12 -12 -12 -13 -15 -16 -16 -15 -16 -17 -18 -19 -19 -19 -18 -18 -18 -18 -18 -19 -19 -19 -19 -19 -19 -18 -18 -18 -18 -18 -18 -18 -18 -18 -18 -18 -18 -18 -17 -17 -17 -17 -17 -17 -17
-10 -13 -12 -12 -11 -11 -11 -12 -12 -13 -14 -14 -15 -16 -16 -16 -16 -17 -17 -19 -19 -19 -19 -19 -19 -19 -20 -20 -20 -19 -19 -19 -19 -19 -19 -19 -19 -19 -19 -19 -18 -18 -18 -18 -18 -18 -18 -18 -18 -18 -18 -18 -18 -18
-14 -16 -15 -15 -14 -13 -13 -13 -13 -14 -15 -16 -17 -18 -17 -16 -16 -17 -18 -19 -19 -19 -19 -20 -20 -20 -20 -20 -20 -20 -20 -20 -20 -20 -19 -19 -19 -19 -19 -19 -19 -19 -19 -19 -19 -19 -19 -19 -18 -18 -18 -18 -18 -18
-16 -17 -16 -17 -16 -14 -15 -15 -16 -16 -16 -16 -16 -16 -16 -16 -17 -19 -19 -19 -20 -20 -20 -21 -22 -22 -22 -22 -22 -22 -21 -22 -22 -22 -22 -22 -21 -20 -19 -19 -20 -20 -20 -20 -20 -20 -20 -19 -19 -19 -19 -19 -19 -19
-18 -18 -17 -19 -19 -19 -17 -18 -18 -18 -18 -19 -17 -18 -16 -17 -17 -19 -19 -21 -22 -22 -23 -24 -25 -24 -23 -23 -23 -23 -23 -23 -23 -23 -23 -23 -22 -21 -20 -21 -21 -21 -21 -21 -21 -20 -20 -20 -20 -20 -20 -19 -19 -19
-19 -20 -20 -21 -21 -22 -23 -21 -21 -21 -22 -21 -19 -20 -21 -20 -20 -22 -24 -26 -27 -27 -25 -24 -23 -23 -23 -23 -23 -24 -25 -25 -25 -25 -24 -24 -23 -21 -22 -22 -22 -22 -22 -21 -21 -21 -21 -21 -20 -20 -20 -20 -20 -20
-21 -20 -22 -23 -23 -24 -23 -23 -21 -21 -21 -21 -21 -21 -23 -24 -25 -26 -28 -29 -27 -25 -24 -24 -24 -23 -23 -23 -23 -23 -24 -24 -25 -25 -24 -24 -23 -23 -22 -22 -22 -22 -22 -22 -21 -21 -21 -21 -20 -20 -20 -20 -20 -20
-20 -21 -22 -22 -24 -21 -21 -21 -20 -20 -20 -19 -20 -22 -23 -24 -25 -26 -26 -25 -24 -24 -24 -23 -22 -22 -22 -22 -22 -23 -23 -23 -23 -24 -24 -24 -25 -24 -24 -24 -23 -22 -22 -22 -22 -21 -21 -21 -21 -21 -21 -21 -20 -20
-22 -22 -23 -25 -23 -21 -21 -20 -20 -20 -20 -20 -20 -20 -20 -21 -21 -21 -22 -22 -22 -22 -22 -22 -22 -21 -21 -22 -22 -22 -22 -23 -23 -23 -23 -24 -24 -23 -23 -23 -24 -23 -23 -22 -22 -22 -22 -22 -22 -21 -21 -21 -21 -21
-24 -24 -23 -22 -23 -23 -22 -24 -23 -21 -23 -23 -23 -21 -20 -21 -21 -22 -23 -24 -23 -23 -22 -21 -21 -21 -21 -22 -22 -23 -23 -23 -24 -24 -25 -24 -24 -23 -23 -22 -23 -23 -24 -23 -22 -22 -22 -22 -22 -22 -21 -21 -21 -21
Wind_Speed
39 40 39 37 36 33 31 29 26 23 21 18 17 16 14 11 14 15 15 16 15 4 7 7 6 5 6 5 3 4 2 2 3 3 3 3 2 4 0 4 5 6 6 4 3 2 8 13 5 6 1 10 17 19
35 39 40 40 39 38 35 32 29 27 24 22 19 18 17 15 12 14 15 16 16 5 6 9 12 12 12 8 3 6 3 5 6 4 1 2 3 2 2 3 2 3 6 4 8 6 1 21 1 7 7 11 11 11
41 38 33 31 38 40 39 36 33 30 27 25 22 19 18 18 16 14 15 15 15 5 7 7 9 12 15 13 10 5 5 6 5 5 7 2 3 4 4 6 1 4 5 3 4 3 8 12 20 7 11 8 13 14
35 38 40 42 40 34 38 39 37 34 31 28 25 22 19 19 19 16 16 15 13 4 3 4 7 11 13 15 13 14 10 6 6 4 2 2 2 6 3 2 3 2 6 4 6 9 10 16 21 23 19 14 15 14
37 34 33 32 36 40 39 36 37 36 34 30 27 24 21 19 19 17 18 18 12 6 3 7 18 16 14 11 11 11 9 8 6 3 0 3 3 3 1 1 4 12 7 6 6 5 3 3 6 27 25 22 18 17
39 38 36 36 33 32 35 39 37 37 36 32 29 26 23 21 18 13 7 11 11 5 3 3 6 6 7 10 10 10 10 9 5 4 4 4 4 3 2 3 10 20 20 19 2 4 11 6 5 19 26 22 19 18
42 41 39 37 36 35 33 32 38 36 35 33 30 26 24 23 20 14 7 4 5 4 3 4 4 3 7 9 8 9 11 5 4 3 4 2 4 5 2 4 7 6 16 22 17 10 8 9 5 13 21 20 20 18
42 45 41 41 38 35 32 34 35 39 35 32 28 23 20 20 19 18 23 21 12 5 6 2 3 2 11 6 6 8 6 8 5 3 2 3 2 1 5 15 14 7 4 11 23 20 13 7 12 14 21 24 24 22
35 35 40 45 40 39 36 33 32 36 40 29 25 22 23 25 16 16 20 14 15 10 6 6 3 4 12 5 5 7 7 2 4 3 4 7 3 6 9 12 13 7 10 7 10 21 20 15 13 17 22 24 24 22
34 34 34 34 43 41 39 35 31 35 42 29 31 18 10 11 19 9 6 7 12 10 9 5 8 3 11 7 3 5 3 2 2 3 8 3 5 25 27 24 21 21 14 14 14 17 23 24 22 23 24 22 21 18
35 34 33 32 34 42 39 37 34 41 41 44 18 12 13 15 13 8 7 6 7 4 10 7 16 6 11 4 3 9 3 2 2 3 4 3 4 4 3 4 8 12 13 19 23 20 15 14 19 25 24 22 21 21
37 35 35 34 31 34 41 38 41 53 48 45 27 26 18 9 7 4 4 2 5 5 9 9 9 6 8 7 4 5 4 2 4 6 2 3 4 4 4 7 10 12 12 12 16 19 21 18 15 18 21 22 22 19
38 36 36 35 32 29 30 42 39 59 52 37 14 12 11 8 5 7 9 4 4 9 14 11 3 10 7 6 4 3 5 5 9 1 4 5 3 1 5 7 4 4 6 7 6 9 15 18 18 17 20 19 21 21
40 37 36 35 31 29 29 33 35 63 39 13 12 9 7 6 6 7 6 6 11 10 25 23 9 5 5 4 3 4 2 3 3 3 7 2 5 2 5 8 8 9 9 8 7 9 13 15 15 16 17 18 21 22
40 37 38 34 29 27 27 28 46 65 18 11 10 8 10 8 7 13 15 13 9 23 32 11 6 5 2 3 3 4 3 5 5 5 2 7 6 4 3 5 7 8 10 11 11 11 11 13 17 18 17 18 20 20
38 36 38 32 28 25 25 20 60 47 17 12 10 7 5 10 4 11 18 13 21 30 17 7 4 4 5 3 4 8 5 6 4 3 9 7 4 3 4 6 8 9 11 12 13 14 14 17 19 20 21 21 20 20
37 38 35 30 25 23 20 32 36 10 9 11 5 11 15 9 16 16 19 23 31 26 4 4 7 7 3 3 4 4 5 0 9 13 9 4 4 7 9 10 12 14 15 16 16 17 18 17 20 24 26 22 21 20
38 35 31 23 23 22 26 27 16 8 5 4 7 13 13 9 19 17 16 28 24 15 13 5 8 5 5 5 3 2 4 8 9 6 2 6 8 10 12 14 15 16 17 16 17 17 19 19 22 26 23 21 21 21
36 35 23 24 26 17 11 10 8 4 1 8 12 26 20 13 11 14 23 34 16 19 12 9 4 3 2 1 2 7 5 4 2 3 6 7 7 11 12 13 14 14 14 15 15 15 15 16 18 19 20 21 22 21
30 24 24 26 30 8 6 5 7 6 2 4 12 13 12 10 13 15 20 21 14 8 3 1 2 2 3 4 4 4 1 2 5 6 6 5 7 9 9 11 11 12 12 12 12 14 14 14 15 16 18 20 20 22
24 25 22 36 21 8 6 4 5 5 8 7 12 7 8 12 10 7 8 12 5 4 2 4 6 5 4 3 3 1 1 3 4 4 7 11 11 12 12 11 12 13 13 13 13 11 10 15 14 13 15 18 20 19
17 27 32 18 6 6 7 7 7 7 6 7 6 6 7 4 4 5 6 8 5 4 3 4 4 4 4 3 2 1 2 4 5 5 5 8 11 11 11 12 13 12 11 10 10 10 10 10 11 12 13 12 14 15
32 28 10 7 7 6 4 5 5 5 4 3 4 4 3 3 4 5 6 5 4 4 5 5 4 5 5 3 3 4 5 6 6 6 6 6 8 9 9 9 10 11 10 8 8 9 9 8 8 10 9 10 11 13
20 8 7 6 8 3 4 5 5 5 5 3 3 4 3 3 3 5 3 3 5 5 5 6 5 5 3 2 4 5 6 7 7 8 8 7 6 6 7 8 9 9 10 10 9 8 7 7 6 7 8 10 10 10
10 11 7 6 7 4 4 3 3 4 4 3 3 3 2 3 2 2 2 3 5 3 3 4 4 4 4 4 5 6 7 8 8 7 7 8 9 8 6 7 8 8 9 9 9 9 9 8 8 9 9 9 11 12
8 13 6 7 5 4 4 3 3 3 3 3 4 2 2 2 3 2 1 6 5 3 3 4 5 5 5 6 7 6 7 8 9 9 9 11 12 13 12 11 10 8 10 11 11 11 10 9 9 9 9 10 9 12
6 5 7 9 4 4 5 7 7 5 5 3 1 1 1 3 2 2 6 6 4 3 4 5 5 6 5 6 6 7 9 10 11 12 12 13 13 14 14 13 12 11 13 12 12 13 14 12 11 11 11 11 12 14
7 11 7 12 9 12 4 4 4 4 3 5 1 3 2 2 2 5 4 5 4 5 5 5 5 6 7 9 12 16 18 19 19 19 19 18 16 13 13 14 14 14 15 14 14 14 14 14 13 12 12 12 11 12
7 12 5 6 6 9 8 5 3 4 6 3 1 2 1 2 6 7 8 6 6 5 4 4 5 7 11 20 20 18 19 21 22 21 19 17 15 12 11 12 15 16 16 14 12 13 14 13 11 11 13 12 11 12
9 12 5 5 5 5 6 6 4 6 8 7 5 5 5 6 8 8 6 5 4 3 1 4 10 18 19 20 21 19 17 18 17 16 18 18 16 16 16 16 15 14 14 16 15 13 13 14 13 15 14 13 13 11
7 6 6 7 4 4 5 5 7 8 6 7 9 6 5 4 5 5 4 4 4 3 2 6 13 15 19 21 24 26 26 23 23 21 21 22 21 19 16 15 15 16 16 17 17 15 13 12 12 13 14 17 14 15
10 9 4 3 1 3 4 3 3 3 3 3 4 4 2 1 1 1 2 5 6 4 5 11 12 15 20 25 26 24 25 27 26 25 23 21 19 16 18 18 17 16 17 18 19 20 20 19 17 15 14 16 17 17
5 7 7 4 2 2 5 4 4 2 3 2 2 2 2 2 2 4 7 3 2 5 10 14 19 24 29 34 32 28 29 31 31 28 25 25 25 26 26 26 25 24 21 19 18 18 19 20 20 19 17 16 17 18
Wind_Direction
260 259 259 259 261 261 261 262 263 267 273 279 287 293 297 303 335 345 351 360 4 312 278 254 235 196 172 181 151 175 32 277 48 91 141 214 177 229 311 218 193 172 150 198 132 102 271 154 114 192 5 152 169 165
271 267 263 259 259 260 259 258 259 260 263 269 275 282 287 291 297 326 337 342 344 317 274 271 250 250 242 242 224 197 217 193 188 92 175 118 182 188 185 268 316 277 193 183 188 216 302 191 167 204 151 156 179 187
270 269 271 274 265 259 258 256 255 256 257 261 265 270 276 282 285 301 315 329 333 308 291 264 265 250 242 239 232 248 235 203 206 182 155 163 191 139 185 238 284 249 184 209 23 290 226 224 224 229 193 186 178 180
277 277 275 272 268 266 261 258 254 252 252 254 258 262 266 271 277 278 298 310 313 276 274 254 273 259 254 242 239 232 252 210 168 186 164 142 175 190 210 209 210 201 142 191 266 275 280 253 226 217 203 202 198 194
265 265 267 271 275 273 266 259 254 249 247 248 251 255 257 261 269 276 286 296 283 247 292 299 286 273 252 237 231 228 222 201 179 196 109 235 181 141 31 67 245 188 189 181 228 221 153 272 253 215 210 209 206 202
263 261 260 261 261 265 266 262 257 250 243 241 242 246 248 249 258 271 283 268 215 204 322 330 279 260 227 215 216 219 212 212 208 222 224 235 208 188 161 230 254 215 219 221 305 360 225 275 284 208 214 211 208 204
259 263 261 258 259 260 260 263 259 253 244 233 235 238 239 240 243 229 228 210 195 291 221 300 255 234 198 197 199 199 199 207 233 257 244 210 202 221 165 235 252 236 233 230 240 260 265 252 277 206 205 204 205 210
258 254 256 260 258 255 256 266 264 254 245 233 226 225 223 226 234 240 245 250 254 243 200 203 272 240 187 175 174 181 182 188 218 245 237 192 167 280 258 244 244 244 256 251 234 233 237 262 225 205 198 205 211 215
268 263 256 249 252 258 255 249 254 257 236 222 213 210 198 209 219 235 243 248 226 218 210 186 195 245 169 157 152 165 181 161 200 213 210 162 167 228 240 264 265 274 237 237 231 225 225 231 227 214 210 213 217 222
267 267 261 256 245 244 249 254 248 248 225 203 183 177 191 197 217 218 203 204 203 211 227 222 197 193 162 160 156 146 189 218 193 218 154 207 254 250 261 261 273 278 264 253 226 218 223 224 223 219 222 227 230 230
265 266 265 261 250 240 237 241 249 237 196 178 174 159 156 173 160 186 201 189 185 259 211 224 188 144 183 138 172 204 179 185 224 190 183 225 263 239 252 244 270 271 263 252 250 255 261 259 254 235 228 227 224 224
260 260 263 263 257 243 233 230 245 199 185 185 174 143 142 170 176 176 193 153 190 230 187 162 182 167 157 165 133 186 171 155 233 130 122 249 244 230 301 297 283 276 274 276 257 244 240 252 255 244 239 234 228 233
258 257 258 259 257 250 240 225 228 195 185 164 145 148 155 176 175 196 192 219 225 185 176 158 145 162 149 174 110 150 182 208 126 145 226 230 162 71 3 358 342 296 287 301 283 243 234 245 247 248 230 230 228 232
255 252 252 255 255 250 235 225 220 190 172 165 156 160 200 184 229 197 183 168 195 162 155 146 130 152 147 138 154 176 143 132 166 215 228 206 137 78 32 25 24 11 360 352 323 277 258 251 250 237 228 227 227 232
245 246 246 252 247 243 231 229 210 185 173 162 170 184 204 192 193 185 169 140 145 159 147 118 99 130 160 156 190 101 156 234 219 226 186 139 130 107 54 28 21 10 360 350 334 312 278 255 244 240 237 235 230 225
236 237 239 243 240 233 226 232 194 188 192 168 187 156 151 160 165 154 167 150 162 154 140 134 140 165 201 183 167 213 185 220 227 190 137 129 92 42 1 351 347 339 332 324 317 309 293 268 253 247 246 240 234 230
228 230 233 237 231 214 207 192 181 206 191 161 207 203 171 153 175 168 173 173 166 151 161 146 179 197 102 193 225 200 210 265 128 127 128 98 3 330 319 320 320 313 304 298 294 291 286 272 250 244 243 241 240 238
222 221 225 214 202 193 192 181 190 203 213 150 150 162 156 137 162 165 164 167 159 180 154 193 137 195 194 193 215 159 119 115 135 126 80 337 320 310 308 308 303 298 296 294 291 286 280 270 256 252 250 245 243 240
212 214 211 196 192 160 150 175 176 150 137 134 135 157 158 133 139 171 178 177 188 175 159 166 201 197 187 103 114 126 120 129 193 281 315 321 312 307 310 306 305 304 298 294 290 289 283 273 267 260 255 249 248 245
202 201 186 186 187 142 130 131 149 135 137 113 122 117 120 116 126 139 153 168 157 141 103 95 55 73 105 125 117 127 104 312 309 321 319 314 315 320 327 323 322 320 310 304 296 288 286 281 272 260 252 250 247 252
175 184 189 175 141 106 100 99 82 87 115 82 110 87 83 110 98 102 102 125 86 45 81 74 102 107 118 119 108 102 307 312 328 326 315 320 331 333 328 320 317 320 318 313 299 290 279 277 278 275 266 256 258 258
152 183 143 144 88 83 75 49 97 97 74 101 80 77 75 62 71 69 97 62 61 52 80 112 118 120 128 112 99 94 0 356 349 340 321 308 319 329 334 336 336 336 331 320 309 306 299 288 279 269 265 263 248 247
144 133 94 63 83 62 63 37 71 43 83 84 82 75 46 62 68 92 75 68 87 79 99 101 111 128 134 97 37 0 353 353 345 332 323 324 330 325 325 327 328 330 335 335 320 312 307 299 285 267 268 257 249 243
116 61 45 52 58 89 88 49 65 75 74 58 61 77 48 68 75 62 77 77 109 101 97 92 99 121 119 31 8 6 4 4 2 345 336 326 324 326 326 328 329 332 333 334 330 324 316 307 285 266 264 258 252 245
74 16 29 34 31 66 65 53 46 62 67 55 87 76 63 59 74 64 75 124 145 113 85 81 76 79 79 51 25 9 1 357 356 349 334 331 333 336 322 319 326 331 330 326 322 316 311 302 289 272 262 259 256 256
68 21 41 4 15 46 30 72 47 81 93 72 60 93 82 88 79 88 102 153 150 130 103 91 77 66 45 27 19 6 347 341 339 338 331 327 323 322 325 328 329 330 317 316 317 314 312 304 296 285 274 259 246 254
50 3 28 27 5 65 89 69 58 57 63 65 73 105 97 77 86 122 150 152 137 118 102 88 76 65 47 26 7 348 335 328 326 324 324 320 314 309 305 303 302 305 301 307 306 302 301 299 294 286 280 269 257 251
47 29 31 355 44 36 69 52 39 43 44 355 338 42 70 56 114 158 156 156 131 118 103 85 69 52 27 0 342 329 318 310 304 303 302 305 306 300 294 290 290 299 306 310 307 303 299 290 286 287 284 278 271 261
36 360 21 31 46 46 39 31 55 41 356 358 59 81 104 86 131 132 137 128 115 104 102 60 21 353 335 329 330 330 328 323 321 320 315 309 300 288 285 280 286 293 296 300 302 302 297 297 293 296 293 286 276 265
10 12 77 47 51 42 22 42 67 60 52 65 88 95 91 105 130 135 135 135 134 142 64 2 348 340 346 346 344 342 341 331 329 323 316 311 302 290 289 290 286 283 284 289 290 297 296 293 277 263 254 262 265 283
6 28 68 52 77 49 53 66 66 61 57 56 65 81 101 129 161 185 205 223 232 251 298 343 354 354 354 350 345 340 340 338 332 324 314 306 305 304 299 290 281 280 282 291 278 285 292 292 296 282 265 255 255 251
27 39 73 76 72 44 24 34 42 57 51 50 54 54 71 96 193 200 280 237 241 268 304 326 327 338 341 343 338 328 327 329 326 318 312 306 303 304 304 302 301 297 291 285 281 278 279 282 286 285 277 263 250 243
46 41 57 82 64 37 14 20 42 55 56 57 43 22 3 9 50 19 6 348 299 298 314 315 313 320 324 327 325 319 316 313 315 313 304 297 291 292 294 294 293 291 286 281 286 286 281 272 270 269 268 267 255 249
Height
1494 1496 1497 1499 1501 1502 1504 1505 1507 1508 1508 1507 1507 1506 1505 1504 1503 1501 1499 1496 1493 1488 1488 1489 1489 1487 1487 1489 1494 1491 1495 1493 1494 1503 1509 1508 1511 1503 1505 1501 1495 1488 1497 1494 1500 1508 1472 1456 1469 1467 1452 1450 1452 1452
1484 1486 1487 1489 1491 1493 1495 1497 1499 1500 1502 1502 1502 1502 1501 1500 1500 1498 1496 1494 1491 1488 1486 1485 1485 1486 1486 1487 1486 1487 1487 1486 1484 1494 1502 1501 1500 1505 1511 1495 1495 1493 1477 1478 1473 1461 1452 1452 1452 1452 1454 1457 1459 1465
1474 1475 1477 1478 1480 1483 1484 1486 1489 1492 1494 1496 1496 1496 1497 1497 1496 1496 1494 1493 1489 1487 1484 1482 1480 1482 1483 1483 1484 1486 1484 1483 1483 1482 1483 1491 1499 1492 1498 1493 1491 1478 1476 1479 1469 1450 1448 1450 1453 1455 1456 1457 1457 1458
1461 1463 1465 1468 1470 1471 1473 1476 1479 1482 1485 1488 1490 1490 1491 1492 1492 1492 1491 1490 1489 1486 1485 1480 1479 1478 1478 1479 1481 1481 1482 1483 1484 1485 1483 1486 1490 1482 1487 1484 1485 1472 1475 1471 1465 1447 1446 1444 1445 1448 1451 1455 1456 1458
1450 1451 1453 1454 1456 1459 1462 1464 1467 1472 1475 1479 1481 1483 1485 1485 1487 1487 1487 1485 1485 1487 1483 1479 1476 1473 1473 1475 1478 1479 1480 1482 1483 1486 1487 1485 1479 1481 1482 1482 1476 1458 1454 1457 1448 1437 1439 1439 1437 1441 1446 1449 1454 1457
1437 1440 1441 1443 1445 1446 1448 1452 1455 1459 1464 1468 1472 1475 1478 1478 1481 1484 1483 1479 1479 1481 1481 1480 1474 1469 1470 1471 1474 1477 1479 1480 1480 1480 1479 1478 1477 1478 1483 1479 1438 1436 1437 1439 1439 1439 1437 1437 1437 1438 1441 1448 1451 1454
1425 1427 1429 1432 1434 1436 1438 1441 1445 1448 1453 1458 1463 1468 1470 1472 1475 1479 1478 1476 1478 1479 1479 1476 1468 1467 1466 1469 1471 1472 1474 1478 1481 1479 1477 1476 1477 1477 1478 1470 1430 1430 1432 1435 1437 1440 1439 1437 1437 1437 1441 1445 1449 1453
1409 1413 1416 1419 1423 1425 1428 1432 1435 1439 1443 1450 1456 1461 1464 1467 1469 1472 1471 1471 1475 1477 1477 1475 1468 1465 1465 1466 1468 1470 1473 1474 1475 1476 1476 1474 1477 1478 1469 1431 1430 1429 1430 1429 1430 1433 1435 1435 1436 1437 1440 1442 1445 1448
1395 1397 1400 1405 1409 1413 1416 1420 1424 1428 1435 1440 1450 1456 1459 1461 1463 1462 1465 1468 1470 1475 1469 1466 1464 1460 1462 1464 1465 1468 1470 1472 1470 1469 1468 1470 1469 1462 1432 1429 1429 1428 1427 1426 1426 1428 1430 1432 1434 1435 1437 1439 1441 1444
1382 1384 1386 1389 1393 1398 1405 1409 1415 1419 1425 1434 1441 1448 1449 1451 1458 1461 1463 1464 1464 1463 1461 1454 1450 1454 1457 1461 1464 1467 1467 1465 1469 1462 1463 1463 1448 1426 1424 1424 1426 1427 1426 1424 1425 1425 1426 1427 1428 1430 1431 1435 1439 1441
1372 1373 1374 1376 1379 1383 1389 1397 1403 1410 1415 1419 1427 1436 1445 1447 1454 1457 1458 1459 1457 1455 1445 1439 1440 1446 1452 1455 1458 1460 1460 1461 1465 1456 1457 1456 1440 1420 1418 1418 1420 1420 1419 1417 1420 1421 1421 1423 1425 1426 1428 1432 1435 1437
1359 1362 1363 1364 1367 1370 1376 1384 1391 1392 1392 1403 1413 1425 1440 1443 1445 1449 1450 1451 1448 1438 1433 1433 1436 1441 1446 1448 1450 1456 1456 1457 1448 1453 1458 1448 1419 1415 1416 1416 1416 1416 1416 1416 1415 1416 1418 1420 1421 1423 1425 1427 1429 1432
1346 1349 1351 1353 1356 1360 1364 1372 1376 1372 1381 1396 1407 1416 1424 1433 1433 1433 1436 1433 1430 1417 1420 1425 1434 1436 1442 1444 1446 1450 1450 1447 1449 1454 1440 1418 1411 1412 1412 1412 1412 1413 1413 1413 1412 1413 1415 1417 1418 1418 1420 1422 1425 1427
1332 1336 1339 1342 1346 1350 1355 1361 1367 1358 1374 1381 1389 1403 1404 1408 1402 1396 1393 1392 1398 1400 1408 1416 1426 1431 1435 1440 1442 1442 1444 1446 1449 1456 1422 1407 1408 1410 1410 1410 1410 1412 1411 1411 1412 1412 1413 1414 1415 1416 1416 1418 1420 1422
1317 1322 1326 1331 1336 1341 1347 1354 1352 1352 1359 1365 1373 1373 1378 1369 1375 1375 1379 1387 1393 1397 1404 1415 1422 1427 1432 1435 1435 1441 1444 1436 1431 1412 1403 1403 1403 1404 1406 1407 1407 1409 1409 1410 1410 1410 1411 1412 1413 1414 1415 1415 1416 1418
1302 1310 1313 1322 1327 1333 1340 1348 1345 1347 1343 1351 1353 1355 1358 1366 1370 1372 1376 1382 1387 1396 1404 1410 1417 1421 1420 1422 1428 1423 1418 1416 1402 1400 1401 1403 1404 1404 1405 1405 1404 1404 1405 1407 1407 1407 1407 1407 1409 1411 1411 1411 1412 1414
1290 1295 1305 1313 1320 1328 1334 1337 1342 1339 1337 1336 1343 1343 1344 1348 1353 1361 1369 1375 1384 1392 1397 1402 1406 1406 1412 1414 1413 1407 1404 1398 1398 1400 1401 1402 1403 1404 1404 1403 1401 1401 1401 1401 1401 1402 1402 1403 1403 1404 1404 1407 1408 1409
1280 1287 1295 1304 1314 1321 1323 1329 1334 1333 1330 1329 1333 1339 1345 1347 1352 1360 1364 1371 1380 1385 1388 1392 1395 1399 1397 1397 1394 1395 1398 1399 1399 1400 1401 1401 1402 1403 1402 1400 1400 1399 1398 1397 1395 1395 1395 1396 1397 1398 1401 1403 1403 1404
1272 1280 1290 1298 1305 1310 1317 1324 1326 1327 1329 1330 1331 1336 1343 1349 1354 1357 1362 1370 1374 1377 1382 1385 1386 1386 1388 1393 1394 1394 1396 1397 1398 1398 1400 1400 1401 1401 1399 1398 1396 1394 1393 1391 1390 1389 1389 1390 1391 1393 1395 1397 1397 1399
1269 1279 1288 1295 1300 1305 1312 1318 1320 1323 1327 1331 1333 1339 1347 1351 1355 1359 1364 1370 1376 1378 1380 1383 1388 1391 1392 1394 1394 1395 1395 1397 1398 1397 1398 1399 1399 1397 1395 1393 1392 1390 1388 1386 1385 1385 1384 1385 1386 1388 1389 1391 1392 1393
1271 1279 1288 1288 1295 1303 1309 1314 1318 1324 1329 1333 1338 1343 1351 1354 1356 1363 1368 1372 1375 1383 1387 1389 1391 1392 1393 1394 1394 1395 1396 1397 1396 1395 1396 1395 1395 1393 1392 1391 1389 1386 1384 1382 1382 1381 1381 1382 1383 1384 1385 1385 1386 1387
1269 1278 1282 1288 1294 1305 1313 1318 1320 1325 1331 1338 1342 1348 1355 1359 1363 1367 1372 1375 1385 1389 1389 1390 1392 1393 1394 1394 1395 1396 1396 1396 1394 1394 1394 1393 1392 1391 1389 1388 1385 1383 1382 1381 1379 1378 1378 1379 1379 1380 1380 1381 1382 1383
1273 1278 1285 1292 1301 1311 1324 1322 1324 1330 1336 1343 1347 1354 1362 1365 1369 1371 1378 1385 1389 1390 1391 1391 1392 1394 1395 1395 1396 1396 1395 1394 1393 1393 1392 1392 1390 1390 1388 1386 1384 1382 1381 1379 1378 1377 1377 1377 1377 1377 1377 1378 1379 1380
1278 1285 1296 1302 1309 1320 1323 1327 1330 1335 1340 1346 1352 1362 1367 1370 1372 1376 1384 1389 1391 1392 1392 1393 1394 1395 1396 1396 1395 1394 1393 1393 1392 1391 1391 1391 1391 1389 1387 1385 1383 1381 1379 1378 1377 1376 1376 1375 1375 1375 1375 1376 1377 1378
1288 1312 1313 1318 1320 1322 1327 1332 1336 1341 1351 1355 1361 1368 1371 1372 1376 1382 1387 1392 1392 1393 1394 1394 1395 1395 1395 1395 1394 1393 1393 1392 1392 1391 1391 1389 1388 1387 1385 1383 1381 1379 1378 1377 1376 1375 1374 1374 1374 1374 1374 1375 1375 1376
1315 1329 1329 1332 1332 1331 1336 1340 1345 1350 1354 1362 1370 1372 1373 1375 1379 1387 1390 1391 1393 1393 1394 1394 1394 1394 1394 1393 1393 1393 1393 1392 1391 1390 1388 1387 1385 1383 1381 1379 1378 1378 1377 1376 1375 1374 1373 1373 1372 1371 1371 1372 1373 1373
1336 1342 1341 1342 1341 1340 1344 1349 1352 1354 1361 1367 1372 1373 1374 1378 1385 1390 1391 1392 1392 1393 1393 1393 1394 1394 1394 1394 1394 1393 1392 1391 1389 1388 1385 1383 1381 1379 1378 1377 1376 1376 1374 1373 1372 1371 1370 1369 1369 1368 1368 1369 1369 1369
1349 1350 1350 1351 1349 1350 1354 1360 1365 1371 1374 1375 1375 1378 1377 1382 1387 1389 1390 1391 1392 1393 1393 1394 1394 1395 1395 1395 1394 1392 1390 1388 1385 1382 1380 1379 1377 1375 1374 1373 1372 1371 1370 1369 1367 1366 1366 1365 1365 1365 1365 1364 1364 1364
1357 1357 1357 1359 1360 1364 1373 1376 1378 1380 1380 1379 1378 1382 1385 1386 1387 1389 1391 1392 1393 1394 1395 1395 1395 1395 1394 1393 1389 1386 1383 1380 1377 1375 1373 1372 1372 1371 1370 1368 1367 1366 1365 1365 1364 1363 1362 1361 1362 1362 1361 1360 1360 1360
1365 1363 1364 1369 1374 1382 1384 1382 1383 1383 1381 1381 1382 1385 1386 1388 1389 1391 1392 1393 1394 1395 1395 1395 1395 1393 1390 1387 1385 1384 1382 1377 1375 1372 1369 1368 1367 1366 1365 1364 1362 1362 1361 1360 1359 1359 1358 1356 1356 1355 1355 1355 1356 1356
1370 1369 1372 1378 1384 1387 1386 1386 1385 1385 1385 1385 1385 1386 1388 1390 1391 1392 1392 1393 1394 1394 1394 1394 1393 1390 1388 1385 1382 1378 1375 1374 1371 1369 1366 1363 1361 1359 1358 1358 1357 1357 1356 1355 1354 1354 1353 1352 1351 1350 1350 1351 1352 1353
1375 1377 1380 1386 1388 1389 1388 1387 1387 1387 1387 1388 1389 1389 1390 1391 1391 1392 1392 1392 1393 1394 1393 1392 1390 1387 1385 1382 1380 1376 1372 1368 1366 1363 1360 1358 1356 1355 1354 1353 1352 1351 1349 1349 1348 1348 1348 1347 1347 1346 1345 1345 1347 1348
1384 1385 1386 1387 1389 1389 1390 1389 1389 1389 1390 1391 1391 1391 1391 1392 1392 1394 1393 1393 1394 1393 1392 1390 1387 1384 1381 1377 1374 1370 1367 1363 1360 1356 1355 1353 1351 1349 1347 1345 1344 1343 1342 1341 1341 1340 1339 1338 1338 1339 1339 1339 1340 1342